Date String (YYYY-MM-DD hh:mm:ss) UTC,Instrument flags,Ambient pressure (hPa),Sample flow (lpm),Bypass flow (lpm),Sample temperature (°C),Ambient temperature (°C),ASC tube jacket temperature (°C),LED temperature (°C),Box temperature (°C),Sample RH (%),Span deviation,Mass concentration (μg/m³),Mass concentration (μg/m³),Mass concentration (μg/m³)
DateTimeUTC,F1_M11,P_M11,Q1_M11,Q2_M11,T1_M11,T2_M11,T3_M11,T4_M11,T5_M11,U1_M11,ZSPAN_M11,X0_M11,X2_M11,X1_M11
2022-10-02 04:00:00,,0829.1,5.00,0.00,30.2,28.8,00.0,39.0,32.0,22.6,0000.0,0006.13,0002.41,0001.87
2022-10-02 04:01:00,,0829.1,5.01,0.00,30.2,28.8,00.0,39.0,32.0,22.6,0000.0,0006.20,0002.40,0001.86
2022-10-02 04:02:00,,0829.1,5.00,0.00,30.2,28.8,00.0,39.0,32.0,22.6,0000.0,0006.15,0002.38,0001.85
2022-10-02 04:03:00,,0829.1,4.99,0.00,30.2,28.8,00.0,39.0,32.0,22.6,0000.0,0006.09,0002.35,0001.83
2022-10-02 04:04:00,,0829.2,5.01,0.00,30.3,28.8,00.0,39.0,32.1,22.6,0000.0,0005.93,0002.30,0001.83
2022-10-02 04:05:00,,0829.1,5.00,0.00,30.3,28.8,00.0,39.0,32.1,22.6,0000.0,0005.90,0002.30,0001.82
2022-10-02 04:06:00,,0829.2,5.00,0.00,30.3,28.8,00.0,39.0,32.1,22.5,0000.0,0005.89,0002.31,0001.81
2022-10-02 04:07:00,,0829.1,5.01,0.00,30.3,28.8,00.0,39.0,32.1,22.5,0000.0,0004.91,0002.36,0001.82
2022-10-02 04:08:00,,0829.1,5.00,0.00,30.3,28.8,00.0,39.0,32.1,22.4,0000.0,0004.57,0002.38,0001.83
2022-10-02 04:09:00,,0829.1,4.99,0.00,30.3,28.8,00.0,39.0,32.1,22.4,0000.0,0003.81,0002.38,0001.84
2022-10-02 04:10:00,,0829.0,5.00,0.00,30.3,28.8,00.0,39.0,32.1,22.4,0000.0,0003.91,0002.39,0001.85
2022-10-02 04:11:00,,0829.1,4.99,0.00,30.3,28.8,00.0,39.0,32.1,22.4,0000.0,0003.82,0002.37,0001.85
2022-10-02 04:12:00,,0829.1,5.00,0.00,30.3,28.8,00.0,39.0,32.0,22.3,0000.0,0003.98,0002.43,0001.87
2022-10-02 04:13:00,,0829.0,5.00,0.00,30.3,28.8,00.0,39.0,32.0,22.2,0000.0,0004.09,0002.47,0001.88
2022-10-02 04:14:00,,0829.1,5.00,0.00,30.3,28.8,00.0,39.0,32.1,22.2,0000.0,0004.37,0002.53,0001.91
2022-10-02 04:15:00,,0829.1,4.99,0.00,30.3,28.8,00.0,39.0,32.1,22.1,0000.0,0004.46,0002.56,0001.92
2022-10-02 04:16:00,,0829.1,5.01,0.00,30.3,28.8,00.0,39.0,32.1,22.1,0000.0,0004.91,0002.61,0001.96
2022-10-02 04:17:00,,0829.1,5.00,0.00,30.3,28.8,00.0,39.0,32.1,22.1,0000.0,0005.22,0002.68,0001.99
2022-10-02 04:18:00,,0829.1,5.00,0.00,30.3,28.8,00.0,39.0,32.1,22.1,0000.0,0005.50,0002.68,0002.00
2022-10-02 04:19:00,,0829.1,5.01,0.00,30.3,28.8,00.0,39.0,32.1,22.0,0000.0,0005.87,0002.75,0002.03
2022-10-02 04:20:00,,0829.1,5.01,0.00,30.3,28.8,00.0,39.0,32.1,21.9,0000.0,0006.26,0002.78,0002.04
2022-10-02 04:21:00,,0829.0,4.99,0.00,30.3,28.8,00.0,39.0,32.1,22.0,0000.0,0007.01,0002.79,0002.06
2022-10-02 04:22:00,,0829.1,5.00,0.00,30.3,28.8,00.0,39.0,32.1,22.0,0000.0,0007.17,0002.81,0002.09
2022-10-02 04:23:00,,0829.1,5.00,0.00,30.3,28.8,00.0,39.1,32.1,21.9,0000.0,0007.12,0002.81,0002.10
2022-10-02 04:24:00,,0829.1,5.00,0.00,30.3,28.8,00.0,39.1,32.1,21.9,0000.0,0007.13,0002.84,0002.12
2022-10-02 04:25:00,,0829.1,5.00,0.00,30.3,28.8,00.0,39.0,32.1,21.9,0000.0,0007.13,0002.89,0002.14
2022-10-02 04:26:00,,0829.1,4.99,0.00,30.3,28.7,00.0,39.1,32.1,21.9,0000.0,0007.29,0002.96,0002.14
2022-10-02 04:27:00,,0829.0,5.00,0.00,30.3,28.8,00.0,39.0,32.1,21.9,0000.0,0006.98,0003.00,0002.15
2022-10-02 04:28:00,,0829.1,5.00,0.00,30.3,28.7,00.0,39.0,32.0,21.9,0000.0,0007.01,0003.04,0002.17
2022-10-02 04:29:00,,0829.0,5.00,0.00,30.3,28.7,00.0,39.0,32.0,21.8,0000.0,0006.78,0003.07,0002.18
2022-10-02 04:30:00,,0829.1,4.99,0.00,30.3,28.7,00.0,39.0,32.0,21.7,0000.0,0006.17,0003.00,0002.18
2022-10-02 04:31:00,,0829.1,5.00,0.00,30.3,28.7,00.0,39.0,32.1,21.8,0000.0,0005.85,0002.96,0002.20
2022-10-02 04:32:00,,0829.1,5.01,0.00,30.3,28.7,00.0,39.0,32.0,21.8,0000.0,0005.06,0002.97,0002.21
2022-10-02 04:33:00,,0829.1,4.99,0.00,30.3,28.7,00.0,39.0,32.0,21.8,0000.0,0004.87,0003.01,0002.23
2022-10-02 04:34:00,,0829.2,5.00,0.00,30.3,28.7,00.0,39.1,32.0,21.8,0000.0,0005.68,0002.99,0002.23
2022-10-02 04:35:00,,0829.2,5.01,0.00,30.3,28.7,00.0,39.1,32.0,21.8,0000.0,0005.93,0002.93,0002.22
2022-10-02 04:36:00,,0829.2,5.00,0.00,30.3,28.8,00.0,39.0,32.0,21.7,0000.0,0005.71,0002.85,0002.22
2022-10-02 04:37:00,,0829.2,4.99,0.00,30.3,28.8,00.0,39.0,32.1,21.7,0000.0,0005.53,0002.77,0002.23
2022-10-02 04:38:00,,0829.3,5.01,0.00,30.3,28.8,00.0,39.0,32.1,21.7,0000.0,0005.84,0002.73,0002.23
2022-10-02 04:39:00,,0829.2,5.01,0.00,30.3,28.8,00.0,39.0,32.1,21.5,0000.0,0006.21,0002.66,0002.22
2022-10-02 04:40:00,,0829.3,4.99,0.00,30.3,28.7,00.0,39.0,32.1,21.3,0000.0,0006.12,0002.63,0002.23
2022-10-02 04:41:00,,0829.3,5.01,0.00,30.3,28.7,00.0,39.0,32.1,21.2,0000.0,0007.28,0002.66,0002.25
2022-10-02 04:42:00,,0829.2,5.01,0.00,30.3,28.7,00.0,39.0,32.0,21.2,0000.0,0007.64,0002.68,0002.25
2022-10-02 04:43:00,,0829.2,4.99,0.00,30.3,28.7,00.0,39.0,32.0,21.1,0000.0,0007.71,0002.72,0002.27
2022-10-02 04:44:00,,0829.2,5.00,0.00,30.3,28.7,00.0,39.0,32.0,21.2,0000.0,0007.77,0002.69,0002.27
2022-10-02 04:45:00,,0829.2,5.01,0.00,30.3,28.7,00.0,39.0,32.0,21.4,0000.0,0007.36,0002.72,0002.27
2022-10-02 04:46:00,,0829.2,5.00,0.00,30.3,28.7,00.0,39.0,32.0,21.5,0000.0,0007.00,0002.78,0002.28
2022-10-02 04:47:00,,0829.2,5.00,0.00,30.3,28.7,00.0,39.0,32.0,21.5,0000.0,0007.08,0002.82,0002.29
2022-10-02 04:48:00,,0829.2,5.01,0.00,30.3,28.7,00.0,39.0,32.0,21.5,0000.0,0007.09,0002.86,0002.30
2022-10-02 04:49:00,,0829.2,5.00,0.00,30.3,28.7,00.0,39.0,32.0,21.6,0000.0,0006.69,0002.83,0002.29
2022-10-02 04:50:00,,0829.2,4.99,0.00,30.3,28.7,00.0,39.0,32.0,21.5,0000.0,0006.35,0002.87,0002.29
2022-10-02 04:51:00,,0829.2,5.01,0.00,30.3,28.7,00.0,39.0,32.0,21.6,0000.0,0006.55,0002.93,0002.28
2022-10-02 04:52:00,,0829.2,5.01,0.00,30.3,28.7,00.0,39.0,32.0,21.6,0000.0,0006.09,0002.99,0002.27
2022-10-02 04:53:00,,0829.3,4.99,0.00,30.3,28.7,00.0,39.0,32.0,21.4,0000.0,0005.38,0002.99,0002.27
2022-10-02 04:54:00,,0829.3,5.01,0.00,30.3,28.7,00.0,39.0,32.1,21.1,0000.0,0005.19,0002.96,0002.26
2022-10-02 04:55:00,,0829.2,5.00,0.00,30.3,28.7,00.0,39.0,32.0,21.2,0000.0,0005.19,0003.00,0002.27
2022-10-02 04:56:00,,0829.2,4.99,0.00,30.3,28.7,00.0,39.0,32.0,21.0,0000.0,0005.22,0003.03,0002.28
2022-10-02 04:57:00,,0829.2,4.99,0.00,30.3,28.7,00.0,39.0,32.0,21.0,0000.0,0005.17,0003.01,0002.29
2022-10-02 04:58:00,,0829.2,5.01,0.00,30.3,28.7,00.0,39.0,32.0,21.0,0000.0,0005.29,0003.00,0002.28
2022-10-02 04:59:00,,0829.2,4.99,0.00,30.2,28.7,00.0,39.0,32.0,21.1,0000.0,0006.05,0003.01,0002.30
